• In Uzbekistan
  • List of Countries
  • For 7 days
  • Water Temperature
  • Satellite Maps
  • Weather Map
  • Weather Widgets
  • user-avatar
    Login

    Hourly Weather Wadzhir

    Today, 27 June, Thursday

    Time Temperature Precipitation Wind Pressure Humidity
    00:00 +29°C° 0 mm 8 mps 738 mmHg 52%
    01:00 +28°C° 0 mm 7 mps 738 mmHg 55%
    02:00 +27°C° 0 mm 6 mps 738 mmHg 59%
    03:00 +26°C° 0 mm 6 mps 738 mmHg 63%
    04:00 +26°C° 0 mm 5 mps 738 mmHg 67%
    05:00 +25°C° 0 mm 5 mps 738 mmHg 71%
    06:00 +25°C° 0 mm 5 mps 739 mmHg 75%
    07:00 +26°C° 0 mm 6 mps 739 mmHg 70%
    08:00 +27°C° 0 mm 6 mps 739 mmHg 66%
    09:00 +28°C° 0 mm 7 mps 740 mmHg 62%
    10:00 +31°C° 0 mm 8 mps 739 mmHg 55%
    11:00 +32°C° 0 mm 8 mps 739 mmHg 47%
    12:00 +34°C° 0 mm 9 mps 738 mmHg 40%
    13:00 +35°C° 0 mm 9 mps 737 mmHg 38%
    14:00 +37°C° 0 mm 9 mps 736 mmHg 37%
    15:00 +37°C° 0 mm 9 mps 735 mmHg 35%
    16:00 +37°C° 0 mm 9 mps 735 mmHg 36%
    17:00 +35°C° 0 mm 9 mps 735 mmHg 38%
    18:00 +35°C° 0 mm 9 mps 735 mmHg 39%
    19:00 +34°C° 0 mm 9 mps 736 mmHg 42%
    20:00 +33°C° 0 mm 10 mps 736 mmHg 46%
    21:00 +32°C° 0 mm 10 mps 737 mmHg 49%
    22:00 +31°C° 0 mm 10 mps 737 mmHg 50%
    23:00 +29°C° 0 mm 10 mps 738 mmHg 51%

    Tomorrow, 28 June, Friday

    Time Temperature Precipitation Wind Pressure Humidity
    00:00 +28°C° 0 mm 10 mps 738 mmHg 52%
    01:00 +27°C° 0 mm 9 mps 738 mmHg 55%
    02:00 +26°C° 0 mm 8 mps 738 mmHg 57%
    03:00 +26°C° 0 mm 7 mps 737 mmHg 59%
    04:00 +24°C° 0 mm 6 mps 737 mmHg 62%
    05:00 +24°C° 0 mm 6 mps 738 mmHg 65%
    06:00 +25°C° 0 mm 5 mps 738 mmHg 68%
    07:00 +26°C° 0 mm 6 mps 738 mmHg 64%
    08:00 +27°C° 0 mm 7 mps 739 mmHg 61%
    09:00 +28°C° 0 mm 7 mps 739 mmHg 58%
    10:00 +29°C° 0 mm 8 mps 739 mmHg 51%
    11:00 +32°C° 0 mm 8 mps 738 mmHg 45%
    12:00 +34°C° 0 mm 8 mps 738 mmHg 39%
    13:00 +34°C° 0 mm 8 mps 737 mmHg 38%
    14:00 +35°C° 0 mm 8 mps 736 mmHg 36%
    15:00 +35°C° 0 mm 8 mps 735 mmHg 35%
    16:00 +35°C° 0 mm 8 mps 735 mmHg 36%
    17:00 +35°C° 0 mm 8 mps 735 mmHg 37%
    18:00 +35°C° 0 mm 8 mps 735 mmHg 38%
    19:00 +34°C° 0 mm 9 mps 736 mmHg 40%
    20:00 +33°C° 0 mm 9 mps 736 mmHg 43%
    21:00 +32°C° 0 mm 10 mps 737 mmHg 45%
    22:00 +31°C° 0 mm 10 mps 737 mmHg 49%
    23:00 +29°C° 0 mm 9 mps 737 mmHg 53%

    Day after tomorrow, 29 June, Saturday

    Time Temperature Precipitation Wind Pressure Humidity
    00:00 +27°C° 0 mm 9 mps 738 mmHg 57%
    01:00 +27°C° 0 mm 8 mps 738 mmHg 60%
    02:00 +26°C° 0 mm 7 mps 737 mmHg 63%
    03:00 +26°C° 0 mm 7 mps 737 mmHg 65%
    04:00 +24°C° 0 mm 6 mps 738 mmHg 68%
    05:00 +25°C° 0 mm 5 mps 738 mmHg 71%
    06:00 +25°C° 0 mm 4 mps 738 mmHg 73%
    07:00 +26°C° 0 mm 5 mps 739 mmHg 66%
    08:00 +27°C° 0 mm 7 mps 739 mmHg 60%
    09:00 +28°C° 0 mm 8 mps 739 mmHg 53%
    10:00 +31°C° 0 mm 9 mps 739 mmHg 47%
    11:00 +33°C° 0 mm 9 mps 739 mmHg 41%
    12:00 +34°C° 0 mm 9 mps 738 mmHg 35%
    13:00 +35°C° 0 mm 9 mps 737 mmHg 32%
    14:00 +37°C° 0 mm 9 mps 736 mmHg 29%
    15:00 +38°C° 0 mm 9 mps 735 mmHg 27%
    16:00 +37°C° 0 mm 8 mps 735 mmHg 28%
    17:00 +37°C° 0 mm 8 mps 735 mmHg 29%
    18:00 +35°C° 0 mm 8 mps 735 mmHg 30%
    19:00 +34°C° 0 mm 7 mps 735 mmHg 33%
    20:00 +33°C° 0 mm 7 mps 736 mmHg 37%
    21:00 +32°C° 0 mm 6 mps 737 mmHg 40%
    22:00 +30°C° 0 mm 7 mps 737 mmHg 46%
    23:00 +29°C° 0 mm 8 mps 737 mmHg 52%

    30 June, Sunday

    Time Temperature Precipitation Wind Pressure Humidity
    00:00 +28°C° 0 mm 9 mps 737 mmHg 57%
    01:00 +27°C° 0 mm 8 mps 737 mmHg 61%
    02:00 +27°C° 0 mm 8 mps 737 mmHg 64%
    03:00 +26°C° 0 mm 7 mps 737 mmHg 68%
    04:00 +26°C° 0 mm 6 mps 737 mmHg 69%
    05:00 +25°C° 0 mm 5 mps 738 mmHg 71%
    06:00 +25°C° 0 mm 5 mps 738 mmHg 73%
    07:00 +26°C° 0 mm 6 mps 739 mmHg 67%
    08:00 +28°C° 0 mm 7 mps 739 mmHg 61%
    09:00 +29°C° 0 mm 7 mps 740 mmHg 56%
    10:00 +32°C° 0 mm 8 mps 739 mmHg 49%
    11:00 +34°C° 0 mm 8 mps 739 mmHg 42%
    12:00 +35°C° 0 mm 9 mps 739 mmHg 35%
    13:00 +37°C° 0 mm 8 mps 738 mmHg 34%
    14:00 +37°C° 0 mm 8 mps 737 mmHg 34%
    15:00 +38°C° 0 mm 8 mps 736 mmHg 33%
    16:00 +37°C° 0 mm 9 mps 736 mmHg 35%
    17:00 +37°C° 0 mm 9 mps 735 mmHg 36%
    18:00 +35°C° 0 mm 9 mps 735 mmHg 38%
    19:00 +34°C° 0 mm 9 mps 736 mmHg 42%
    20:00 +34°C° 0 mm 8 mps 737 mmHg 46%
    21:00 +33°C° 0 mm 8 mps 737 mmHg 49%
    22:00 +32°C° 0 mm 8 mps 737 mmHg 54%
    23:00 +31°C° 0 mm 9 mps 737 mmHg 58%

    1 July, Monday

    Time Temperature Precipitation Wind Pressure Humidity
    00:00 +29°C° 0 mm 9 mps 738 mmHg 63%
    01:00 +28°C° 0 mm 9 mps 737 mmHg 66%
    02:00 +27°C° 0 mm 8 mps 737 mmHg 69%
    03:00 +27°C° 0 mm 7 mps 737 mmHg 72%
    04:00 +26°C° 0 mm 7 mps 737 mmHg 73%
    05:00 +26°C° 0 mm 6 mps 738 mmHg 74%
    06:00 +26°C° 0 mm 6 mps 738 mmHg 76%
    07:00 +27°C° 0 mm 7 mps 738 mmHg 70%
    08:00 +28°C° 0 mm 7 mps 739 mmHg 64%
    09:00 +29°C° 0 mm 8 mps 739 mmHg 59%
    10:00 +31°C° 0 mm 8 mps 739 mmHg 53%
    11:00 +33°C° 0 mm 9 mps 738 mmHg 47%
    12:00 +35°C° 0 mm 9 mps 738 mmHg 41%
    13:00 +37°C° 0 mm 9 mps 737 mmHg 37%
    14:00 +38°C° 0 mm 9 mps 736 mmHg 33%
    15:00 +39°C° 0 mm 8 mps 735 mmHg 30%
    16:00 +38°C° 0 mm 8 mps 735 mmHg 31%
    17:00 +38°C° 0 mm 8 mps 735 mmHg 32%
    18:00 +37°C° 0 mm 8 mps 735 mmHg 33%
    19:00 +35°C° 0 mm 8 mps 735 mmHg 38%
    20:00 +34°C° 0 mm 9 mps 736 mmHg 44%
    21:00 +32°C° 0 mm 9 mps 737 mmHg 49%
    22:00 +31°C° 0 mm 9 mps 737 mmHg 55%
    23:00 +29°C° 0 mm 9 mps 737 mmHg 61%

    2 July, Tuesday

    Time Temperature Precipitation Wind Pressure Humidity
    00:00 +28°C° 0 mm 9 mps 737 mmHg 67%
    01:00 +27°C° 0 mm 8 mps 737 mmHg 68%
    02:00 +27°C° 0 mm 7 mps 737 mmHg 69%
    03:00 +26°C° 0 mm 6 mps 737 mmHg 71%
    04:00 +26°C° 0 mm 6 mps 737 mmHg 72%
    05:00 +26°C° 0 mm 5 mps 738 mmHg 74%
    06:00 +25°C° 0 mm 5 mps 738 mmHg 75%
    07:00 +26°C° 0 mm 5 mps 739 mmHg 72%
    08:00 +27°C° 0 mm 6 mps 739 mmHg 69%
    09:00 +27°C° 0 mm 6 mps 740 mmHg 67%
    10:00 +28°C° 0 mm 6 mps 739 mmHg 62%
    11:00 +29°C° 0 mm 6 mps 739 mmHg 58%
    12:00 +30°C° 0 mm 6 mps 738 mmHg 53%
    13:00 +32°C° 0 mm 6 mps 738 mmHg 48%
    14:00 +33°C° 0 mm 5 mps 737 mmHg 43%
    15:00 +34°C° 0 mm 5 mps 736 mmHg 38%
    16:00 +35°C° 0 mm 6 mps 735 mmHg 38%
    17:00 +35°C° 0 mm 6 mps 735 mmHg 37%
    18:00 +35°C° 0 mm 7 mps 735 mmHg 36%
    19:00 +34°C° 0 mm 7 mps 735 mmHg 42%
    20:00 +33°C° 0 mm 7 mps 736 mmHg 48%
    21:00 +30°C° 0 mm 7 mps 736 mmHg 54%
    22:00 +30°C° 0 mm 7 mps 737 mmHg 57%
    23:00 +29°C° 0 mm 7 mps 737 mmHg 60%
    Show more